Regional Weather Roundup
Issued by NWS Sterling, VA

Home | Current Version | Previous Version | Text Only | Print | Product List | Glossary Off
Versions: 1 2 3 4 5 6 7 8 9 10 11 12 13 14 15 16 17 18 19 20 21 22 23 24 25 26 27 28 29 30 31 32 33 34 35 36 37 38 39 40 41 42 43 44 45 46 47 48 49 50

378
ASUS41 KLWX 280010
RWRLWX

REGIONAL WEATHER ROUNDUP
NATIONAL WEATHER SERVICE BALTIMORE MD/WASHINGTON DC
800 PM EDT FRI MAY 27 2016

Note: "FAIR" indicates few or no clouds below 12,000 feet
with no significant weather and/or obstructions to visibility.
 TC=TEMPERATURE CELSIUS

 * =Non NWS site. Station does not report precipitation (e.g. rain,
    snow, etc.), thunder, or fog.

DCZ001-MDZ009-015-VAZ040>042-051-053>054-280100-
WASHINGTON METRO

CITY           SKY/WX    TMP DP  RH WIND       PRES   REMARKS
WASHINGTON NAT MOCLDY    81  69  67 S9        30.04R
DULLES         MOCLDY    83  66  56 SW6       30.05R
ANDREWS AFB    CLEAR     81  68  64 S7        30.04R
FT BELVOIR     FAIR      82  69  66 SE1       30.04R
QUANTICO       FAIR      80  69  69 SW9       30.05R
COLLEGE PARK*  FAIR      84  66  54 S5        30.04R
LEESBURG*      FAIR      84  70  61 S5        30.05R
MANASSAS*      CLEAR     82  70  65 S5        30.04R

$$

MDZ006>007-011-014-280100-
BALTIMORE METRO

CITY           SKY/WX    TMP DP  RH WIND       PRES   REMARKS
BWI AIRPORT    MOCLDY    79  66  64 SE8       30.04R
MD SCIENCE CTR   N/A     80  65  59 MISG      30.05R
MARTIN STATE   PTCLDY    81  70  69 S13       30.06R
ANNAPOLIS      CLEAR     75  65  70 S16G26    30.05R
FORT MEADE*    PTCLDY    77  68  73 SE3       30.07R

$$

MDZ012-015-019>023-280100-
MARYLAND EASTERN SHORE

CITY           SKY/WX    TMP DP  RH WIND       PRES   REMARKS
OCEAN CITY     PTCLDY    71  60  68 SW13      30.11R
SALISBURY      CLEAR     75  56  51 S9        30.09R
BAY BRIDGE AP* CLEAR     79  66  65 S10       30.05R
CAMBRIDGE*     CLEAR     75  61  60 S10       30.07S

$$

MDZ017>025-280100-
SOUTHERN MARYLAND

CITY           SKY/WX    TMP DP  RH WIND       PRES   REMARKS
PATUXENT RIVER PTCLDY    77  61  57 S10G18    30.07R
ST INIGOES     CLEAR     75  60  59 SE14G21   30.06R
LEONARDTOWN*   CLEAR     75  61  60 SE7       30.09R

$$

MDZ003>005-280100-
NORTH CENTRAL MARYLAND

CITY           SKY/WX    TMP DP  RH WIND       PRES   REMARKS
FREDERICK*     CLEAR     79  73  83 SW3       30.06R
HAGERSTOWN APT CLOUDY    74  66  76 S8        30.08R
WESTMINSTER*   PTCLDY    84  79  84 S3        30.07R HX  96

$$

MDZ501>502-280100-
WESTERN MARYLAND

CITY           SKY/WX    TMP DP  RH WIND       PRES   REMARKS
OAKLAND*       CLOUDY    68  61  77 SE7       30.16S
CUMBERLAND*    CLOUDY    72  70  94 N3        30.11S

$$

VAZ025>031-280100-
SHENANDOAH VALLEY

CITY           SKY/WX    TMP DP  RH WIND       PRES   REMARKS
WINCHESTER*    LGT RAIN  72  64  78 W5        30.07R
FRONT ROYAL*   FAIR      68  66  94 S6        30.07R
LURAY*         MOCLDY    73  68  83 N3        30.09R
NEW MARKET*    FAIR      70  65  85 W3        30.08R
STAUNTON*      CLOUDY    74  65  73 NW10      30.12R
WAYNESBORO*    CLOUDY    79  65  63 S7        30.10R

$$

WVZ021-048>050-054>055-280100-
EASTERN WEST VIRGINIA PANHANDLE

CITY           SKY/WX    TMP DP  RH WIND       PRES   REMARKS
MARTINSBURG    MOCLDY    77  63  61 SW5       30.06R
PETERSBURG*    FAIR      73  71  91 CALM      30.09S

$$

VAZ036>039-050-280100-
CENTRAL FOOTHILLS

CITY           SKY/WX    TMP DP  RH WIND       PRES   REMARKS
CHARLOTTESVILL FAIR      82  66  58 S9        30.06R
CULPEPER*      FAIR      83  70  65 S3        30.05S
ORANGE*        FAIR      82  68  61 CALM      30.08R
GORDONSVILLE*  FAIR      81  70  69 CALM      30.06R
WARRENTON*     FAIR      82  64  54 S3        30.05R

$$

VAZ055>057-280100-
NORTH AND CENTRAL PIEDMONT

CITY           SKY/WX    TMP DP  RH WIND       PRES   REMARKS
FREDERICKSBRG* FAIR      84  69  60 S7        30.04R
STAFFORD*      FAIR      82  65  56 S3        30.09R

$$

NCZ024-NYZ072-PAZ021-071-VAZ022-071-280100-
OTHER REGIONAL OBSERVATIONS

CITY           SKY/WX    TMP DP  RH WIND       PRES   REMARKS
NEW YORK CITY  PTCLDY    78  63  59 CALM      30.04R
PHILADELPHIA   CLOUDY    83  66  56 S10       30.03R
PITTSBURGH     CLOUDY    84  60  44 SW5       30.03R
ROANOKE        FAIR      80  64  58 S5        30.10R
RICHMOND       FAIR      80  66  62 S7        30.07R
RALEIGH        PTCLDY    81  61  50 S7        30.09R

$$

ANZ530>537-280100-
MARINE OBSERVATIONS

STATION/POSITION TIME  TEMP    WIND        PRES
                       AIR SEA DIR/SP/G
                 (UTC) (F)     (DEG/KT/KT) (MB)
THOMAS PT LIGHT  0000   74 67  170/ 22/ 24 1018.5R
BALT KEY BRIDGE  2300          160/ 13/ 18 1016.5R
COVE POINT       2300          190/ 17/ 19 1018.4R
LEWISETTA        2300          180/ 12/ 14 1017.6R
SOLOMONS ISLAND  2300          160/ 14/ 17   N/A
PINEY POINT      2300          170/ 15/ 16   N/A

$$





USA.gov is the U.S. government's official web portal to all federal, state and local government web resources and services.